STARLINK-38042

Last updated on Sun Aug 09 2026 00:02:04 GMT+0000 (Coordinated Universal Time)

1 69991U 26159S 26220.53312595 .00091457 00000+0 60829-3 0 9995 2 69991 97.2835 60.5435 0001032 109.3522 250.7855 15.75159834 5703
UTC large
Height (km)
Speed (km/s)
/
Latitude / Longitude
Inclination (degrees)
Orbital Period (minutes)
Azimuth
Elevation
Range (km)
Doppler Factor

Next 0 passes for location: London (51.5072 / 0.1276)

No passes found over London.
STARLINK-38042